Regional Weather Roundup
Issued by NWS Sioux Falls, SD

Home | Current Version | Previous Version | Text Only | Print | Product List | Glossary On
Versions: 1 2 3 4 5 6 7 8 9 10 11 12 13 14 15 16 17 18 19 20 21 22 23 24 25 26 27 28 29 30 31 32 33 34 35 36 37 38 39 40 41 42 43 44 45 46 47 48 49 50
000
ASUS43 KFSD 050010
RWRFSD

WEATHER ROUNDUP FOR SE SOUTH DAKOTA/SW MINNESOTA/NW IOWA
NATIONAL WEATHER SERVICE SIOUX FALLS SD
600 PM CST SUN DEC 04 2016

NOTE: "FAIR" INDICATES FEW OR NO CLOUDS BELOW 12,000 FEET WITH NO
SIGNIFICANT WEATHER AND OR OBSTRUCTIONS TO VISIBILITY.


SDZ038>040-050-052>070-050100-
SOUTHEAST SOUTH DAKOTA

CITY           SKY/WX    TMP DP  RH WIND       PRES   REMARKS
BROOKINGS      CLEAR     32  29  88 S8        29.77S WCI  25
CHAMBERLAIN    CLEAR     34  29  83 S3        29.78S
6HR MIN TEMP:  34; 6HR MAX TEMP:  45;

HURON          CLEAR     34  29  82 SW6       29.78S WCI  29
6HR MIN TEMP:  33; 6HR MAX TEMP:  43;

MADISON        FAIR      34  34 100 W10       29.78F WCI  26
MITCHELL       CLEAR     35  29  78 SW6       29.81S
6HR MIN TEMP:  35; 6HR MAX TEMP:  44;

SIOUX FALLS    PTCLDY    37  31  78 W5        29.80F
6HR MIN TEMP:  37; 6HR MAX TEMP:  44;

WINNER         FAIR      35  25  66 S9        29.77F WCI  28
YANKTON        CLEAR     39  27  60 CALM      29.82S
$$

MNZ071-072-080-081-089-090-097-098-050100-
SOUTHWEST MINNESOTA

CITY           SKY/WX    TMP DP  RH WIND       PRES   REMARKS
FAIRMONT       CLEAR     38  32  79 W9        29.80F
JACKSON        CLEAR     34  30  86 SW8       29.81R WCI  27
LUVERNE        CLEAR     32  28  86 W7        29.81S WCI  26
MARSHALL       CLEAR     35  31  85 W10       29.78R WCI  27
6HR MIN TEMP:  35; 6HR MAX TEMP:  43;

MONTEVIDEO     MOCLDY    36  30  80 NW5       29.79S
PIPESTONE      CLEAR     36  30  80 W7        29.78S
REDWOOD FALLS  CLEAR     34  29  82 W8        29.78R WCI  27
TRACY          CLEAR     36  32  87 SW9       29.78R
WINDOM         CLEAR     36  30  80 CALM      29.79S
WORTHINGTON    CLEAR     35  31  85 SW9       29.80S WCI  28
$$

IAZ001>003-012>014-020>022-031-032-NEZ013-014-SDZ071-050100-
NORTHWEST IOWA

CITY           SKY/WX    TMP DP  RH WIND       PRES   REMARKS
CHEROKEE       CLEAR     36  35  99 CALM      29.85R
DENISON        CLEAR     36  34  93 SW6       29.86S
ESTHERVILLE    CLEAR     33  31  92 W9        29.81S WCI  25
LE MARS        CLEAR     37  30  75 CALM      29.85S
ORANGE CITY    CLEAR     34  30  86 CALM      29.83S
SHELDON        CLEAR     36  34  93 SW5       29.81S
SIOUX CITY     CLEAR     38  30  73 S3        29.85S
6HR MIN TEMP:  37; 6HR MAX TEMP:  51;

SPENCER        CLEAR     31  29  92 SW7       29.83R WCI  24
6HR MIN TEMP:  31; 6HR MAX TEMP:  46;

STORM LAKE     CLEAR     34  32  93 SW8       29.85R WCI  27
$$

ABBREVIATIONS USED IN REMARKS
   TC - TEMPERATURE IN CELSIUS
  WCI - WIND CHILL INDEX
   HX - HEAT INDEX
  VSB - VISIBILITY





USA.gov is the U.S. government's official web portal to all federal, state and local government web resources and services.